SQ9IWE-13 Weather Reports


Display with metric or nautical units.
time (UTC)temp
F
wind
direction
speed
MPH
gust
MPH
rain 1hr
in
rain 24hr
in
rain mn
in
humidity
%
barometer
mb
20260906113001 70 0 0.0 0.0 0.00 0.00 0.00 51 1025.0
20260906112001 73 0 0.0 0.0 0.00 0.00 0.00 51 1024.8
20260906111001 72 0 0.0 0.0 0.00 0.00 0.00 51 1024.9
20260906110001 74 0 0.0 0.0 0.00 0.00 0.00 50 1024.8
20260906105001 70 0 0.0 0.0 0.00 0.00 0.00 54 1024.9
20260906104001 72 0 0.0 0.0 0.00 0.00 0.00 51 1024.7
20260906103001 72 0 0.0 0.0 0.00 0.00 0.00 51 1024.7
20260906102001 74 0 0.0 0.0 0.00 0.00 0.00 50 1024.7
20260906101001 72 0 0.0 0.0 0.00 0.00 0.00 52 1024.7
20260906095001 73 0 0.0 0.0 0.00 0.00 0.00 52 1024.6
20260906093001 75 0 0.0 0.0 0.00 0.00 0.00 52 1024.6
20260906092001 76 0 0.0 0.0 0.00 0.00 0.00 49 1024.5
20260906091001 75 0 0.0 0.0 0.00 0.00 0.00 50 1024.5
20260906085001 73 0 0.0 0.0 0.00 0.00 0.00 53 1024.5
20260906084001 66 0 0.0 0.0 0.00 0.00 0.00 61 1024.5
20260906083000 64 0 0.0 0.0 0.00 0.00 0.00 61 1024.5
20260906081000 66 0 0.0 0.0 0.00 0.00 0.00 60 1024.2
20260906080000 72 0 0.0 0.0 0.00 0.00 0.00 53 1024.0
20260906075000 66 0 0.0 0.0 0.00 0.00 0.00 59 1023.9
20260906074000 69 0 0.0 0.0 0.00 0.00 0.00 56 1023.8
20260906073000 63 0 0.0 0.0 0.00 0.00 0.00 63 1023.7
20260906072000 63 0 0.0 0.0 0.00 0.00 0.00 63 1023.8
20260906071000 64 0 0.0 0.0 0.00 0.00 0.00 63 1023.7
20260906070000 62 0 0.0 0.0 0.00 0.00 0.00 64 1023.5
20260906065000 62 0 0.0 0.0 0.00 0.00 0.00 65 1023.5
20260906064001 62 0 0.0 0.0 0.00 0.00 0.00 67 1023.3
20260906063001 61 0 0.0 0.0 0.00 0.00 0.00 68 1023.2
20260906062001 63 0 0.0 0.0 0.00 0.00 0.00 66 1023.1
20260906061001 61 0 0.0 0.0 0.00 0.00 0.00 71 1023.0
20260906055001 60 0 0.0 0.0 0.00 0.00 0.00 72 1022.8
20260906054001 60 0 0.0 0.0 0.00 0.00 0.00 72 1022.7
20260906052001 59 0 0.0 0.0 0.00 0.00 0.00 75 1022.4
20260906051001 57 0 0.0 0.0 0.00 0.00 0.00 77 1022.4
20260906050001 57 0 0.0 0.0 0.00 0.00 0.00 79 1022.1
20260906045001 57 0 0.0 0.0 0.00 0.00 0.00 79 1022.1
20260906044001 56 0 0.0 0.0 0.00 0.00 0.00 79 1022.0
20260906043001 56 0 0.0 0.0 0.00 0.00 0.00 79 1022.0
20260906042001 56 0 0.0 0.0 0.00 0.00 0.00 79 1021.9
20260906041001 56 0 0.0 0.0 0.00 0.00 0.00 80 1021.8
20260906040001 56 0 0.0 0.0 0.00 0.00 0.00 80 1021.7
20260906035001 56 0 0.0 0.0 0.00 0.00 0.00 80 1021.6
20260906034001 56 0 0.0 0.0 0.00 0.00 0.00 80 1021.6
20260906033001 56 0 0.0 0.0 0.00 0.00 0.00 80 1021.5
20260906031000 56 0 0.0 0.0 0.00 0.00 0.00 81 1021.4
20260906030000 56 0 0.0 0.0 0.00 0.00 0.00 81 1021.3
20260906025000 56 0 0.0 0.0 0.00 0.00 0.00 80 1021.1
20260906024000 56 0 0.0 0.0 0.00 0.00 0.00 81 1021.2
20260906023000 56 0 0.0 0.0 0.00 0.00 0.00 81 1021.1
20260906022000 57 0 0.0 0.0 0.00 0.00 0.00 81 1021.1
20260906021000 57 0 0.0 0.0 0.00 0.00 0.00 81 1021.0
20260906020000 57 0 0.0 0.0 0.00 0.00 0.00 82 1021.0
20260906015000 57 0 0.0 0.0 0.00 0.00 0.00 82 1020.8
20260906014000 57 0 0.0 0.0 0.00 0.00 0.00 82 1020.8
20260906013000 57 0 0.0 0.0 0.00 0.00 0.00 81 1020.7
20260906012000 58 0 0.0 0.0 0.00 0.00 0.00 81 1020.7
20260906011000 58 0 0.0 0.0 0.00 0.00 0.00 81 1020.6
20260906005000 58 0 0.0 0.0 0.00 0.00 0.00 81 1020.6
20260906004000 58 0 0.0 0.0 0.00 0.00 0.00 81 1020.5
20260906003001 58 0 0.0 0.0 0.00 0.00 0.00 82 1020.5
20260906002001 58 0 0.0 0.0 0.00 0.00 0.00 83 1020.5
20260906001001 58 0 0.0 0.0 0.00 0.00 0.00 84 1020.5
20260906000001 58 0 0.0 0.0 0.00 0.00 0.00 83 1020.4
20260905235001 58 0 0.0 0.0 0.00 0.00 0.00 84 1020.4
20260905234001 58 0 0.0 0.0 0.00 0.00 0.00 84 1020.4
20260905233001 57 0 0.0 0.0 0.00 0.00 0.00 86 1020.4
20260905232001 57 0 0.0 0.0 0.00 0.00 0.00 87 1020.4
20260905231001 57 0 0.0 0.0 0.00 0.00 0.00 87 1020.4
20260905230001 57 0 0.0 0.0 0.00 0.00 0.00 87 1020.3
20260905225001 57 0 0.0 0.0 0.00 0.00 0.00 87 1020.2
20260905224001 57 0 0.0 0.0 0.00 0.00 0.00 88 1020.1
20260905223001 57 0 0.0 0.0 0.00 0.00 0.00 88 1020.1
20260905222001 57 0 0.0 0.0 0.00 0.00 0.00 88 1020.0
20260905221001 57 0 0.0 0.0 0.00 0.00 0.00 88 1020.0
20260905220001 57 0 0.0 0.0 0.00 0.00 0.00 88 1020.1
20260905215001 57 0 0.0 0.0 0.00 0.00 0.00 88 1020.1
20260905214001 57 0 0.0 0.0 0.00 0.00 0.00 88 1020.0
20260905213001 57 0 0.0 0.0 0.00 0.00 0.00 88 1020.0
20260905212000 57 0 0.0 0.0 0.00 0.00 0.00 87 1019.9
20260905211000 58 0 0.0 0.0 0.00 0.00 0.00 86 1020.1
20260905210000 59 0 0.0 0.0 0.00 0.00 0.00 81 1020.3
20260905205000 60 0 0.0 0.0 0.00 0.00 0.00 74 1020.1
20260905204000 61 0 0.0 0.0 0.00 0.00 0.00 70 1020.0
20260905203000 64 0 0.0 0.0 0.00 0.00 0.00 63 1019.7
20260905202000 64 0 0.0 0.0 0.00 0.00 0.00 59 1018.7
20260905201000 64 0 0.0 0.0 0.00 0.00 0.00 59 1018.5
20260905200000 64 0 0.0 0.0 0.00 0.00 0.00 58 1018.4
20260905195000 65 0 0.0 0.0 0.00 0.00 0.00 57 1018.3
20260905194000 65 0 0.0 0.0 0.00 0.00 0.00 57 1018.2
20260905192000 66 0 0.0 0.0 0.00 0.00 0.00 56 1018.2
20260905191000 66 0 0.0 0.0 0.00 0.00 0.00 57 1018.2
20260905190000 66 0 0.0 0.0 0.00 0.00 0.00 57 1018.0
20260905185000 65 0 0.0 0.0 0.00 0.00 0.00 58 1018.0
20260905184000 66 0 0.0 0.0 0.00 0.00 0.00 57 1018.0
20260905183000 66 0 0.0 0.0 0.00 0.00 0.00 57 1017.7
20260905182001 66 0 0.0 0.0 0.00 0.00 0.00 57 1017.6
20260905181001 66 0 0.0 0.0 0.00 0.00 0.00 57 1017.7
20260905175001 67 0 0.0 0.0 0.00 0.00 0.00 57 1017.5
20260905174001 67 0 0.0 0.0 0.00 0.00 0.00 58 1017.4
20260905173001 67 0 0.0 0.0 0.00 0.00 0.00 58 1017.4
20260905172001 68 0 0.0 0.0 0.00 0.00 0.00 58 1017.3
20260905171001 68 0 0.0 0.0 0.00 0.00 0.00 57 1017.3
20260905170001 68 0 0.0 0.0 0.00 0.00 0.00 57 1017.1
20260905165001 68 0 0.0 0.0 0.00 0.00 0.00 56 1017.1
20260905164001 69 0 0.0 0.0 0.00 0.00 0.00 55 1016.9
20260905163001 70 0 0.0 0.0 0.00 0.00 0.00 54 1016.9
20260905162001 70 0 0.0 0.0 0.00 0.00 0.00 53 1016.7
20260905161001 71 0 0.0 0.0 0.00 0.00 0.00 52 1016.5
20260905160001 71 0 0.0 0.0 0.00 0.00 0.00 51 1016.3
20260905153000 72 0 0.0 0.0 0.00 0.00 0.00 50 1016.3
20260905152000 72 0 0.0 0.0 0.00 0.00 0.00 50 1016.2
20260905151000 73 0 0.0 0.0 0.00 0.00 0.00 51 1016.1
20260905150000 72 0 0.0 0.0 0.00 0.00 0.00 52 1016.1
20260905145000 72 0 0.0 0.0 0.00 0.00 0.00 53 1016.0
20260905144000 72 0 0.0 0.0 0.00 0.00 0.00 53 1015.8
20260905143000 72 0 0.0 0.0 0.00 0.00 0.00 53 1015.9
20260905142000 71 0 0.0 0.0 0.00 0.00 0.00 56 1016.0
20260905141000 72 0 0.0 0.0 0.00 0.00 0.00 56 1016.1
20260905140000 72 0 0.0 0.0 0.00 0.00 0.00 54 1016.0
20260905135000 73 0 0.0 0.0 0.00 0.00 0.00 52 1016.0
20260905134000 72 0 0.0 0.0 0.00 0.00 0.00 50 1015.9
20260905132000 73 0 0.0 0.0 0.00 0.00 0.00 55 1016.1
20260905131001 73 0 0.0 0.0 0.00 0.00 0.00 57 1016.2
20260905130001 72 0 0.0 0.0 0.00 0.00 0.00 55 1016.3
20260905125001 72 0 0.0 0.0 0.00 0.00 0.00 55 1016.3
20260905124001 73 0 0.0 0.0 0.00 0.00 0.00 54 1016.4
20260905123001 72 0 0.0 0.0 0.00 0.00 0.00 56 1016.3
20260905122001 72 0 0.0 0.0 0.00 0.00 0.00 53 1016.3
20260905121001 73 0 0.0 0.0 0.00 0.00 0.00 54 1016.4
20260905120001 74 0 0.0 0.0 0.00 0.00 0.00 52 1016.5
20260905115001 76 0 0.0 0.0 0.00 0.00 0.00 52 1016.3
20260905114001 73 0 0.0 0.0 0.00 0.00 0.00 53 1016.4